Back to catalog

STARLINK-5060

AliveCommunicationsVLEO
NORAD 55413·PAYLOAD·🇺🇸 United States

Launched Jan 31, 2023 from Vandenberg Space Force Base

Loading…

Next Passes (next 24 hours)

TLE

FreshSource: CelesTrak SupGP

Epoch: Sep 14, 2026, 22:09 UTC

1 55413C 23014Y   26257.92340278 -.00011477  00000+0 -96208-3 0  2571
2 55413  70.0013 327.1398 0003517 270.5486  42.0074 14.98324337    14

Track STARLINK-5060 in real time with AllMySat

Download on the App Store